Meteorología y climatología de Navarra
Datos de la estación - Meteo Navarra

Estación de Irabia GN

Altitud 822 m.


Datos desde el 09/11/2019 hasta el 10/11/2019 en horario solar
Los datos son PROVISIONALES

Anterior Página 1 de 1 Siguiente Descargar: Formato para Excel 2000 o superior   Formato csv   Formato para OpenOffice Calc
Fecha Temperatura Humedad relativa Radiación global Insolación Precipitación Vel. viento 10 m Vel. viento 10 m Dir. viento 10 m
ºC % W/m² s l/m² m/s km/h º
09/11/2019 0:00 1.8 98 - - - - 0.9 - - - - - -
09/11/2019 0:10 1.6 98 - - - - 0.8 - - - - - -
09/11/2019 0:20 1.7 98 - - - - 0.3 - - - - - -
09/11/2019 0:30 1.5 98 - - - - 0.4 - - - - - -
09/11/2019 0:40 1.5 98 - - - - 0.1 - - - - - -
09/11/2019 0:50 1.5 98 - - - - 0.1 - - - - - -
09/11/2019 1:00 1.6 98 - - - - 0.4 - - - - - -
09/11/2019 1:10 1.5 98 - - - - 1.2 - - - - - -
09/11/2019 1:20 1.4 98 - - - - 1.0 - - - - - -
09/11/2019 1:30 1.7 98 - - - - 0.5 - - - - - -
09/11/2019 1:40 1.8 98 - - - - 0.5 - - - - - -
09/11/2019 1:50 1.8 98 - - - - 0.5 - - - - - -
09/11/2019 2:00 1.8 98 - - - - 0.3 - - - - - -
09/11/2019 2:10 1.9 98 - - - - 1.2 - - - - - -
09/11/2019 2:20 1.6 98 - - - - 0.1 - - - - - -
09/11/2019 2:30 1.7 98 - - - - 0.1 - - - - - -
09/11/2019 2:40 1.7 98 - - - - 0.0 - - - - - -
09/11/2019 2:50 1.7 98 - - - - 0.5 - - - - - -
09/11/2019 3:00 1.6 98 - - - - 1.0 - - - - - -
09/11/2019 3:10 1.8 98 - - - - 0.1 - - - - - -
09/11/2019 3:20 1.8 98 - - - - 0.2 - - - - - -
09/11/2019 3:30 1.6 98 - - - - 0.1 - - - - - -
09/11/2019 3:40 1.6 98 - - - - 0.1 - - - - - -
09/11/2019 3:50 1.7 98 - - - - 0.5 - - - - - -
09/11/2019 4:00 1.6 98 - - - - 1.3 - - - - - -
09/11/2019 4:10 1.7 98 - - - - 0.2 - - - - - -
09/11/2019 4:20 1.8 98 - - - - 0.1 - - - - - -
09/11/2019 4:30 1.9 98 - - - - 0.1 - - - - - -
09/11/2019 4:40 1.7 98 - - - - 0.0 - - - - - -
09/11/2019 4:50 2.0 98 - - - - 0.1 - - - - - -
09/11/2019 5:00 2.1 98 - - - - 0.0 - - - - - -
09/11/2019 5:10 1.9 98 - - - - 0.0 - - - - - -
09/11/2019 5:20 1.9 98 - - - - 0.0 - - - - - -
09/11/2019 5:30 2.0 98 - - - - 0.1 - - - - - -
09/11/2019 5:40 2.0 98 - - - - 0.0 - - - - - -
09/11/2019 5:50 2.0 98 - - - - 0.1 - - - - - -
09/11/2019 6:00 2.1 98 - - - - 0.0 - - - - - -
09/11/2019 6:10 2.2 98 - - - - 0.0 - - - - - -
09/11/2019 6:20 2.1 98 - - - - 0.0 - - - - - -
09/11/2019 6:30 2.0 98 - - - - 0.0 - - - - - -
09/11/2019 6:40 2.0 98 - - - - 0.0 - - - - - -
09/11/2019 6:50 1.8 98 - - - - 0.1 - - - - - -
09/11/2019 7:00 1.7 98 - - - - 0.0 - - - - - -
09/11/2019 7:10 1.7 98 - - - - 0.0 - - - - - -
09/11/2019 7:20 1.6 98 - - - - 0.0 - - - - - -
09/11/2019 7:30 1.5 98 - - - - 0.0 - - - - - -
09/11/2019 7:40 1.5 98 - - - - 0.0 - - - - - -
09/11/2019 7:50 1.6 98 - - - - 0.0 - - - - - -
09/11/2019 8:00 1.6 98 - - - - 0.0 - - - - - -
09/11/2019 8:10 1.5 98 - - - - 0.0 - - - - - -
09/11/2019 8:20 1.7 98 - - - - 0.1 - - - - - -
09/11/2019 8:30 1.8 98 - - - - 0.0 - - - - - -
09/11/2019 8:40 1.9 98 - - - - 0.1 - - - - - -
09/11/2019 8:50 1.9 98 - - - - 0.2 - - - - - -
09/11/2019 9:00 1.9 98 - - - - 0.0 - - - - - -
09/11/2019 9:10 2.2 98 - - - - 0.1 - - - - - -
09/11/2019 9:20 2.4 98 - - - - 0.0 - - - - - -
09/11/2019 9:30 2.8 98 - - - - 0.0 - - - - - -
09/11/2019 9:40 3.4 98 - - - - 0.1 - - - - - -
09/11/2019 9:50 3.8 98 - - - - 0.0 - - - - - -
09/11/2019 10:00 4.3 98 - - - - 0.0 - - - - - -
09/11/2019 10:10 4.1 98 - - - - 0.0 - - - - - -
09/11/2019 10:20 4.6 98 - - - - 0.0 - - - - - -
09/11/2019 10:30 4.4 98 - - - - 0.0 - - - - - -
09/11/2019 10:40 4.1 98 - - - - 0.0 - - - - - -
09/11/2019 10:50 4.2 98 - - - - 0.0 - - - - - -
09/11/2019 11:00 4.8 98 - - - - 0.0 - - - - - -
09/11/2019 11:10 5.5 98 - - - - 0.0 - - - - - -
09/11/2019 11:20 5.5 98 - - - - 0.0 - - - - - -
09/11/2019 11:30 5.5 98 - - - - 0.0 - - - - - -
09/11/2019 11:40 5.6 98 - - - - 0.0 - - - - - -
09/11/2019 11:50 5.1 98 - - - - 0.0 - - - - - -
09/11/2019 12:00 4.8 98 - - - - 0.0 - - - - - -
09/11/2019 12:10 4.7 98 - - - - 0.0 - - - - - -
09/11/2019 12:20 4.7 98 - - - - 0.0 - - - - - -
09/11/2019 12:30 5.2 98 - - - - 0.0 - - - - - -
09/11/2019 12:40 5.4 98 - - - - 0.0 - - - - - -
09/11/2019 12:50 4.7 98 - - - - 0.0 - - - - - -
09/11/2019 13:00 4.8 98 - - - - 0.0 - - - - - -
09/11/2019 13:10 4.9 98 - - - - 0.0 - - - - - -
09/11/2019 13:20 4.8 98 - - - - 0.0 - - - - - -
09/11/2019 13:30 5.0 97 - - - - 0.1 - - - - - -
09/11/2019 13:40 5.0 95 - - - - 0.0 - - - - - -
09/11/2019 13:50 4.7 97 - - - - 0.0 - - - - - -
09/11/2019 14:00 4.7 98 - - - - 0.0 - - - - - -
09/11/2019 14:10 4.4 98 - - - - 0.0 - - - - - -
09/11/2019 14:20 4.3 98 - - - - 0.0 - - - - - -
09/11/2019 14:30 4.1 98 - - - - 0.1 - - - - - -
09/11/2019 14:40 3.8 98 - - - - 0.3 - - - - - -
09/11/2019 14:50 3.5 98 - - - - 0.4 - - - - - -
09/11/2019 15:00 3.7 98 - - - - 0.2 - - - - - -
09/11/2019 15:10 3.5 98 - - - - 0.2 - - - - - -
09/11/2019 15:20 3.3 98 - - - - 0.2 - - - - - -
09/11/2019 15:30 3.5 98 - - - - 0.2 - - - - - -
09/11/2019 15:40 3.4 98 - - - - 0.1 - - - - - -
09/11/2019 15:50 3.3 98 - - - - 0.0 - - - - - -
09/11/2019 16:00 3.1 98 - - - - 0.4 - - - - - -
09/11/2019 16:10 3.0 98 - - - - 0.2 - - - - - -
09/11/2019 16:20 3.0 98 - - - - 0.0 - - - - - -
09/11/2019 16:30 3.1 98 - - - - 0.2 - - - - - -
09/11/2019 16:40 2.8 98 - - - - 0.0 - - - - - -
09/11/2019 16:50 2.8 98 - - - - 0.1 - - - - - -
09/11/2019 17:00 2.9 98 - - - - 0.0 - - - - - -
09/11/2019 17:10 3.2 98 - - - - 0.2 - - - - - -
09/11/2019 17:20 2.9 98 - - - - 0.9 - - - - - -
09/11/2019 17:30 2.7 98 - - - - 0.5 - - - - - -
09/11/2019 17:40 2.7 98 - - - - 0.0 - - - - - -
09/11/2019 17:50 2.7 98 - - - - 0.0 - - - - - -
09/11/2019 18:00 2.7 98 - - - - 0.2 - - - - - -
09/11/2019 18:10 2.7 98 - - - - 0.3 - - - - - -
09/11/2019 18:20 3.0 98 - - - - 0.1 - - - - - -
09/11/2019 18:30 2.9 98 - - - - 0.0 - - - - - -
09/11/2019 18:40 3.0 98 - - - - 0.1 - - - - - -
09/11/2019 18:50 2.9 98 - - - - 0.0 - - - - - -
09/11/2019 19:00 2.7 98 - - - - 0.3 - - - - - -
09/11/2019 19:10 2.6 98 - - - - 0.4 - - - - - -
09/11/2019 19:20 2.6 98 - - - - 0.5 - - - - - -
09/11/2019 19:30 2.7 98 - - - - 0.9 - - - - - -
09/11/2019 19:40 2.7 98 - - - - 0.8 - - - - - -
09/11/2019 19:50 2.8 98 - - - - 0.7 - - - - - -
09/11/2019 20:00 2.8 98 - - - - 0.5 - - - - - -
09/11/2019 20:10 2.9 98 - - - - 0.7 - - - - - -
09/11/2019 20:20 2.8 98 - - - - 0.7 - - - - - -
09/11/2019 20:30 3.0 98 - - - - 0.4 - - - - - -
09/11/2019 20:40 2.7 98 - - - - 0.5 - - - - - -
09/11/2019 20:50 2.5 98 - - - - 0.1 - - - - - -
09/11/2019 21:00 2.3 98 - - - - 0.1 - - - - - -
09/11/2019 21:10 2.2 98 - - - - 0.1 - - - - - -
09/11/2019 21:20 2.3 98 - - - - 0.4 - - - - - -
09/11/2019 21:30 2.4 98 - - - - 0.2 - - - - - -
09/11/2019 21:40 2.4 98 - - - - 0.2 - - - - - -
09/11/2019 21:50 2.2 98 - - - - 0.3 - - - - - -
09/11/2019 22:00 2.6 98 - - - - 1.0 - - - - - -
09/11/2019 22:10 2.8 98 - - - - 1.1 - - - - - -
09/11/2019 22:20 2.7 98 - - - - 0.5 - - - - - -
09/11/2019 22:30 2.1 98 - - - - 0.0 - - - - - -
09/11/2019 22:40 1.9 98 - - - - 0.0 - - - - - -
09/11/2019 22:50 2.0 98 - - - - 0.0 - - - - - -
09/11/2019 23:00 1.9 98 - - - - 0.1 - - - - - -
09/11/2019 23:10 2.0 98 - - - - 0.2 - - - - - -
09/11/2019 23:20 2.1 98 - - - - 0.9 - - - - - -
09/11/2019 23:30 2.4 98 - - - - 0.4 - - - - - -
09/11/2019 23:40 1.8 98 - - - - 0.0 - - - - - -
09/11/2019 23:50 2.0 98 - - - - 0.0 - - - - - -
Anterior Página 1 de 1 Siguiente

NOTA: Tipo de datos según el color:
   - Valores diarios o 10 minutos correctos
   - Valores diarios calculados a partir de un número de datos 10 minutos menor que 144 y mayor que 120, o de un número de datos semihorarios menor que 48 y mayor que 40 (caso de las estaciones de Riegos de Navarra y del MARM)
   - Valores diez minutos estimados


Contacto        Enlaces        Aviso legal